Tracking 25648 objects as of 18-May-2022
HD Live streaming from Space Station
objects crossing your sky now

SL-14 DEB

Track SL-14 DEB now!
10-day predictions


NORAD ID: 45347
Int'l Code: 1991-056CG
Perigee: 910.0 km
Apogee: 1,209.6 km
Inclination: 82.7 °
Period: 106.2 minutes
Semi major axis: 7430 km
RCS: Unknown
Launch date: August 15, 1991
Source: Commonwealth of Independent States (former USSR) (CIS)
Launch site: PLESETSK MISSILE AND SPACE COMPLEX (PKMTR)

Note: This is SATELLITE DEBRIS
aabbcc
Your satellite tracking list
Your tracking list is empty




NASA's NSSDC Master Catalog

Two Line Element Set (TLE):
1 45347U 91056CG  22134.87784185  .00008888  00000-0  11247-1 0  9992
2 45347  82.6508  86.5223 0201593  76.4728 285.8787 13.55354363108387
Source of the keplerian elements: AFSPC